Weather in Salou

Spain     41°04′42″N   1°08′27″E
temp.,
°C
wind,
m/s
gust,
m/s
humid.,
%
clouds,
%
prec.,
mm/h
press.,
hPa
HPBL,
m
26 october, tue
tue2623:00+20wsw115895 0.0 1022652
02:00+19nnw1159100 0.0 1022569
05:00+19nne2167100 0.0 1022503
08:00+18nne3265100 0.0 1022401
11:00+18nw225435 0.0 1024382
14:00+19wsw33510 0.0 1023367
17:00+20ssw54550 0.0 1022346
20:00+20sw55610 0.0 1022632
27 october, wed
wed2723:00+20wsw65622 0.0 1023738
02:00+19wsw45623 0.0 1022574
05:00+19w23565 0.0 1021406
08:00+19nne22530 0.0 1022394
11:00+18ne44575 0.0 1023498
14:00+19e4467100 0.0 1022794
17:00+19ese6570100 0.1 1021852
20:00+19e446427 0.1 1021826
28 october, thu
thu2823:00+19ene55688 0.0 1021996
02:00+19ene55673 0.1 10201009
05:00+18ene557014 0.1 1019848
08:00+17ene446915 0.2 1019767
11:00+17ene33685 0.0 1019726
14:00+17e32665 0.0 1018666
17:00+18ese11644 0.0 1017515
20:00+18se22667 0.0 1016665
29 october, fri
fri2923:00+19sse3368100 0.0 1016858
02:00+19ssw4470100 0.1 1015861
05:00+20ssw5669100 0.2 1014934
08:00+20sw6775100 0.6 1013813
11:00+19wsw6776100 1.4 1013401
14:00+21wsw5748100 1.4 1013926
17:00+21sw5658100 0.0 1012635
20:00+21sw3461100 0.0 1013214
30 october, sat
sat3023:00+21nw2256100 0.0 101368
02:00+21n2148100 0.0 1013132
05:00+21wsw8860100 0.0 1013689
08:00+17wnw3476100 0.6 1013329
11:00+18sw101483100 2.5 1014970
14:00+18s71183100 8.1 1013798
17:00+20ssw101274100 2.6 1011901
20:00+20sw81284100 3.4 1012808